[[{"header":{"parameterUnit":"m.s-1","parameterCategory":1,"la1":30.2991,"la2":30.254,"lo1":-89.0895,"lo2":-89.0444,"dy":0.0017,"dx":0.0017,"nx":28,"ny":28,"refTime":"2025-04-18T09:00:00:Z","depth":0,"parameterNumber":2,"parameterNumberName":"U-component_of_WINDS"},"data":[0,0,0,0,0,0,0,0,0,0,0,0,0,0,0,0,0,0,0,0,0,0,0,0,0,0,0,0,0,0,0,0,0,0,0,0,0,0,0,0,0,0,0,0,0,0,0,0,0,0,0,0,0,0,0,0,0,0,-4.8883,-4.8884,0,-4.8967,-4.8968,-4.8969,-4.8904,-4.8901,-4.8898,-4.8895,-4.8981,-4.8986,-4.899,0,0,0,0,0,0,0,0,0,0,0,0,0,-4.8667,-4.8672,-4.8883,-4.8884,-4.8885,-4.8967,-4.8968,-4.8969,-4.8904,-4.8901,-4.8897,-4.8894,-4.8979,-4.8985,-4.8991,0,0,0,0,0,0,0,0,0,0,0,0,0,-4.8757,-4.8673,-4.8883,-4.8863,-4.8862,-4.8967,-4.8968,-4.897,-4.8905,-4.8901,-4.8897,-4.8893,-4.8977,-4.8984,-4.8992,-4.9121,0,0,-4.9014,-4.9017,0,0,0,0,0,0,0,0,-4.8752,-4.8765,-4.8865,-4.8864,-4.8863,-4.8921,-4.8923,-4.902,-4.8906,-4.8889,-4.8895,-4.8891,-4.8964,-4.8972,-4.8997,-4.9125,-4.9129,-4.9015,-4.9019,-4.9022,-4.9024,0,0,0,0,0,0,0,-4.8746,-4.8761,-4.8916,-4.8866,-4.8866,-4.885,-4.8858,-4.8941,-4.8949,-4.889,-4.8885,-4.8896,-4.8963,-4.899,-4.8999,-4.913,-4.9015,-4.9021,-4.9026,-4.9028,-4.9369,-4.9373,0,0,0,0,0,0,-4.8742,-4.8756,-4.8914,-4.8919,-4.8796,-4.8857,-4.8866,-4.8907,-4.8948,-4.895,-4.89,-4.8893,-4.898,-4.899,-4.9002,-4.9155,-4.9022,-4.9029,-4.9033,-4.9364,-4.937,-4.9375,0,0,0,0,0,0,-4.8737,-4.8756,-4.891,-4.8837,-4.8855,-4.8865,-4.8911,-4.891,-4.8938,-4.8955,-4.8956,-4.8926,-4.8977,-4.8991,-4.9092,-4.9157,-4.9032,-4.9039,-4.9359,-4.9366,-4.9372,-4.9464,0,0,0,0,0,0,-4.8732,-4.8755,-4.8804,-4.8838,-4.8859,-4.8999,-4.8915,-4.8915,-4.8951,-4.8942,-4.898,-4.8983,-4.8975,-4.9081,-4.9099,-4.9165,-4.9045,-4.9353,-4.9362,-4.937,-4.9455,-4.9473,-4.9488,0,0,0,0,0,-4.8724,-4.8827,-4.8807,-4.8826,-4.8921,-4.9003,-4.9015,-4.9004,-4.8956,-4.9005,-4.9017,-4.8981,-4.9148,-4.9092,-4.9112,-4.9181,-4.9348,-4.9359,-4.9369,-4.9447,-4.9469,-4.9488,0,0,0,0,0,0,-4.8799,-4.883,-4.8809,-4.8926,-4.8963,-4.8992,-4.9053,-4.9028,-4.9079,-4.9069,-4.9053,-4.9063,-4.9168,-4.9185,-4.9122,-4.9309,-4.924,-4.9255,-4.9293,-4.9314,-4.9331,-4.9323,-4.9051,0,0,0,0,0,-4.883,-4.8894,-4.8918,-4.9019,-4.9038,-4.9043,-4.9079,-4.9068,-4.9105,-4.912,-4.9138,-4.9176,-4.9237,-4.9277,-4.9334,-4.9458,-4.9465,-4.9516,-4.9532,-4.9546,-4.9558,-4.9625,-4.9647,-4.9409,-4.9409,-4.9409,0,0,-4.8892,-4.8917,-4.8959,-4.9034,-4.9061,-4.9128,-4.9056,-4.913,-4.918,-4.9131,-4.9226,-4.9243,-4.9283,-4.9396,-4.9447,-4.9413,-4.9626,-4.9559,-4.957,-4.9575,-4.9638,-4.9661,-4.9681,-4.9416,-4.9415,-4.9414,0,0,-4.904,-4.9067,-4.9153,-4.9182,-4.9224,-4.9227,-4.9248,-4.9283,-4.9291,-4.9387,-4.9352,-4.9411,-4.9516,-4.9547,-4.9576,-4.9739,-4.9708,-4.9758,-4.9845,-4.991,-4.9929,-4.9945,-5.0002,-5.0023,-4.9771,-4.9771,-4.9771,0,-4.9113,-4.9212,-4.92,-4.9277,-4.9311,-4.9272,-4.9359,-4.9388,-4.9446,-4.9471,-4.9433,-4.9565,-4.9589,-4.9709,-4.9749,-4.9775,-4.9798,-4.9752,-4.9927,-4.9944,-4.9959,-5.0013,-5.0035,-4.9777,-4.9776,-4.9776,-4.9775,0,-4.9299,-4.9369,-4.9433,-4.9491,-4.9533,-4.9615,-4.9616,-4.966,-4.9646,-4.9653,-4.9752,-4.9782,-4.9843,-4.9872,-4.9859,-4.999,-4.9968,-4.9929,-4.986,-4.9988,-5.0038,-5.0059,-4.9785,-4.9783,-4.9781,-4.978,0,0,-4.9493,-4.9545,-4.9569,-4.9595,-4.964,-4.9694,-4.9775,-4.9836,-4.9873,-4.9916,-4.9983,-5.0074,-5.0039,-5.0073,-5.0063,-5.0121,-5.0247,-5.0075,-5.0076,-5.0105,-5.0393,-5.042,-5.0444,-5.0228,-5.0232,-5.0235,-5.0389,0,-4.9642,-4.9782,-4.9774,-4.9905,-4.997,-4.9934,-5.0004,-5.004,-5.005,-5.0106,-5.0117,-5.0181,-5.0131,-5.0151,-5.0207,-5.022,-5.0304,-5.0209,-5.0289,-5.0292,-5.0277,-5.047,-5.0499,-5.0642,-5.0408,-5.0412,-5.0414,0,-4.9833,-4.9883,-5.002,-5.0056,-5.0083,-5.0146,-5.0202,-5.0257,-5.0297,-5.03,-5.0339,-5.032,-5.0402,-5.0334,-5.0446,-5.0382,-5.0415,-5.0427,-5.0432,-5.0437,-5.0359,-5.0478,-5.0687,-5.0708,-5.0445,-5.0443,-5.0441,0,-4.9959,-5.0061,-5.0156,-5.018,-5.0225,-5.027,-5.0291,-5.0327,-5.0364,-5.0414,-5.0438,-5.0497,-5.0528,-5.0575,-5.0573,-5.0523,-5.0687,-5.0618,-5.0691,-5.0691,-5.0724,-5.0722,-5.0939,-5.075,-5.075,-5.0749,-5.0749,0,-5.0125,-5.021,-5.0213,-5.0272,-5.0366,-5.0358,-5.0452,-5.0469,-5.0501,-5.0562,-5.0537,-5.0594,-5.059,-5.0649,-5.0648,-5.0741,-5.0756,-5.0761,-5.0759,-5.0762,-5.0761,-5.0781,-5.077,-5.0755,-5.0754,-5.0753,-5.0752,0,-5.028,-5.0286,-5.0387,-5.0422,-5.0433,-5.0501,-5.0531,-5.0587,-5.0595,-5.0673,-5.0691,-5.0705,-5.0773,-5.0776,-5.0855,-5.0855,-5.0967,-5.0956,-5.0953,-5.095,-5.1023,-5.1015,-5.1259,-5.129,-5.1082,-5.1084,-5.1086,0,-5.0384,-5.0448,-5.0491,-5.053,-5.0553,-5.0617,-5.0655,-5.0651,-5.0692,-5.0744,-5.0793,-5.0859,-5.0911,-5.1022,-5.1039,-5.1099,-5.1087,-5.1169,-5.1096,-5.1097,-5.1086,-5.1082,-5.1088,-5.1182,-5.1184,-5.1186,-5.1188,0,-5.0567,-5.0567,-5.0623,-5.0682,-5.0728,-5.0774,-5.0816,-5.085,-5.0851,-5.0899,-5.0968,-5.1009,-5.109,-5.1155,-5.1214,-5.1236,-5.1212,-5.1211,-5.1231,-5.1233,-5.1228,-5.123,-5.099,-5.1205,-5.1203,-5.1202,-5.1201,-5.12,-5.0698,-5.0754,-5.0792,-5.0856,-5.0888,-5.0929,-5.0983,-5.0999,-5.1057,-5.1122,-5.1116,-5.1193,-5.1233,-5.131,-5.1337,-5.1397,-5.1369,-5.1398,-5.1405,-5.1412,-5.1419,-5.1221,-5.1408,-5.1408,-5.1408,-5.1407,-5.1407,0,-5.0878,-5.0902,-5.0961,-5.1021,-5.1072,-5.1047,-5.1093,-5.1137,-5.1205,-5.1244,-5.1296,-5.1376,-5.144,-5.1464,-5.1526,-5.157,-5.1561,-5.1586,-5.1581,-5.1587,-5.1441,-5.1417,-5.1593,-5.1593,-5.1593,-5.1593,-5.1592,-5.1592,-5.0977,-5.107,-5.1076,-5.1184,-5.1207,-5.1282,-5.1311,-5.1349,-5.138,-5.147,-5.1524,-5.1539,-5.1572,-5.1637,-5.1694,-5.17,-5.1723,-5.1753,-5.1754,-5.1616,-5.1597,-5.1579,-5.1556,-5.1759,-5.1759,-5.1894,-5.1895,-5.1896]},{"header":{"parameterUnit":"m.s-1","parameterCategory":1,"la1":30.2991,"la2":30.254,"lo1":-89.0895,"lo2":-89.0444,"dy":0.0017,"dx":0.0017,"nx":28,"ny":28,"refTime":"2025-04-18T09:00:00:Z","depth":0,"parameterNumber":3,"parameterNumberName":"V-component_of_WINDS"},"data":[0,0,0,0,0,0,0,0,0,0,0,0,0,0,0,0,0,0,0,0,0,0,0,0,0,0,0,0,0,0,0,0,0,0,0,0,0,0,0,0,0,0,0,0,0,0,0,0,0,0,0,0,0,0,0,0,0,0,2.2771,2.2772,0,2.2848,2.2849,2.285,2.2856,2.2855,2.2854,2.2853,2.2929,2.2932,2.2934,0,0,0,0,0,0,0,0,0,0,0,0,0,2.2628,2.263,2.2771,2.2772,2.2773,2.2848,2.2849,2.285,2.2856,2.2855,2.2854,2.2853,2.2928,2.2931,2.2935,0,0,0,0,0,0,0,0,0,0,0,0,0,2.2696,2.2631,2.2771,2.2785,2.2787,2.2848,2.2849,2.285,2.2856,2.2855,2.2854,2.2853,2.2927,2.2931,2.2935,2.2986,0,0,2.2948,2.295,0,0,0,0,0,0,0,0,2.2692,2.2701,2.2782,2.2784,2.2787,2.2841,2.2826,2.2896,2.2857,2.283,2.2853,2.2852,2.2901,2.2907,2.2924,2.2989,2.2993,2.2948,2.2951,2.2953,2.2954,0,0,0,0,0,0,0,2.2687,2.2698,2.2802,2.2783,2.2786,2.2787,2.2795,2.2839,2.2871,2.2832,2.2833,2.2842,2.2902,2.292,2.2926,2.2994,2.2948,2.2952,2.2954,2.2956,2.3107,2.3109,0,0,0,0,0,0,2.268,2.2694,2.2799,2.2804,2.2735,2.2791,2.28,2.2825,2.2871,2.2877,2.2843,2.2842,2.2913,2.2921,2.2928,2.2992,2.2953,2.2956,2.2959,2.3106,2.3107,2.3109,0,0,0,0,0,0,2.2677,2.2689,2.2796,2.2749,2.2763,2.2795,2.2822,2.2827,2.2845,2.2879,2.2884,2.2856,2.2913,2.2923,2.2972,2.2995,2.2958,2.2962,2.3104,2.3106,2.3108,2.3119,0,0,0,0,0,0,2.2673,2.2688,2.2708,2.275,2.2765,2.2839,2.2824,2.283,2.2853,2.2852,2.2893,2.2898,2.2912,2.2966,2.2976,2.3,2.2965,2.3102,2.3105,2.3108,2.3117,2.3122,2.3126,0,0,0,0,0,2.2668,2.2707,2.2709,2.2722,2.2791,2.284,2.2849,2.2866,2.2855,2.2875,2.2897,2.2897,2.2991,2.2971,2.2983,2.3008,2.3101,2.3104,2.3107,2.3115,2.3121,2.3125,0,0,0,0,0,0,2.2665,2.2712,2.2715,2.2769,2.2801,2.2841,2.2867,2.2871,2.2905,2.2903,2.2922,2.2931,2.298,2.2999,2.2976,2.3061,2.3044,2.305,2.3046,2.3052,2.3056,2.305,2.2969,0,0,0,0,0,2.2672,2.2709,2.2747,2.2791,2.2807,2.2835,2.2857,2.2867,2.29,2.2913,2.2939,2.297,2.3007,2.303,2.3066,2.312,2.3129,2.3143,2.3148,2.3151,2.3156,2.3187,2.3194,2.312,2.312,2.312,0,0,2.2684,2.2714,2.2736,2.2792,2.2817,2.2855,2.2845,2.2885,2.2913,2.2919,2.2968,2.2988,2.3024,2.3077,2.3101,2.3094,2.3178,2.3155,2.3158,2.3161,2.3191,2.3198,2.3204,2.3122,2.3122,2.3122,0,0,2.2725,2.2752,2.2792,2.2819,2.2859,2.2877,2.2887,2.2928,2.2942,2.2992,2.2997,2.3031,2.3093,2.312,2.3141,2.3196,2.3197,2.3207,2.3229,2.3259,2.3265,2.327,2.3291,2.3298,2.3212,2.3212,2.3212,0,2.2735,2.2793,2.2812,2.2853,2.2877,2.2886,2.2927,2.2952,2.3001,2.3017,2.3009,2.309,2.3115,2.3174,2.3188,2.3205,2.3217,2.3202,2.3263,2.3268,2.3274,2.3293,2.3301,2.3213,2.3212,2.3212,2.3212,0,2.2803,2.2844,2.2871,2.2921,2.2948,2.2989,2.3014,2.304,2.3049,2.3068,2.312,2.315,2.3193,2.3208,2.3216,2.327,2.3264,2.3259,2.3243,2.3281,2.33,2.3307,2.3214,2.3214,2.3213,2.3213,0,0,2.2844,2.2905,2.2915,2.2939,2.2985,2.3016,2.3057,2.3101,2.3123,2.3157,2.3192,2.3247,2.3243,2.3268,2.3279,2.3306,2.3349,2.3298,2.3299,2.3307,2.3411,2.3414,2.3422,2.335,2.3352,2.3353,2.3408,0,2.2891,2.2966,2.2986,2.3049,2.3087,2.3097,2.3134,2.3166,2.3186,2.322,2.3242,2.328,2.3272,2.3287,2.3315,2.3338,2.337,2.3334,2.3383,2.3385,2.3374,2.3432,2.3435,2.3485,2.3415,2.3416,2.3417,0,2.2955,2.2993,2.3061,2.3105,2.3121,2.3153,2.3196,2.3229,2.3266,2.3279,2.3308,2.3317,2.3361,2.3344,2.3404,2.338,2.3401,2.3416,2.3418,2.3423,2.3403,2.3438,2.3501,2.3509,2.3429,2.3428,2.3427,0,2.2979,2.3047,2.3097,2.3116,2.3167,2.319,2.3213,2.3249,2.3274,2.3311,2.3328,2.3369,2.3392,2.3423,2.3444,2.3429,2.3503,2.3487,2.3515,2.3515,2.3529,2.3528,2.3597,2.3543,2.3543,2.3543,2.3543,0,2.3029,2.3071,2.3108,2.3139,2.3186,2.3208,2.3254,2.3276,2.3309,2.3344,2.3355,2.3388,2.3413,2.3449,2.3465,2.3514,2.3523,2.3535,2.3539,2.3534,2.3532,2.3548,2.3545,2.3545,2.3545,2.3544,2.3544,0,2.3063,2.309,2.3145,2.319,2.3203,2.3235,2.3274,2.3304,2.3325,2.337,2.3381,2.3414,2.3457,2.3482,2.3535,2.3546,2.3601,2.3602,2.3588,2.359,2.3616,2.3614,2.3697,2.371,2.3648,2.3648,2.3649,0,2.3093,2.3126,2.3175,2.3201,2.3224,2.3264,2.3291,2.3315,2.3342,2.3389,2.3413,2.3458,2.3495,2.3563,2.3591,2.3633,2.3636,2.3663,2.3642,2.3637,2.3637,2.3635,2.3639,2.3666,2.3666,2.3667,2.3667,0,2.3145,2.3157,2.3196,2.3241,2.3273,2.3309,2.3344,2.3364,2.3393,2.3424,2.347,2.3498,2.3555,2.3599,2.3644,2.3666,2.3672,2.3674,2.3683,2.3678,2.3669,2.3675,2.3598,2.3671,2.3671,2.3671,2.3671,2.367,2.3178,2.3208,2.3248,2.3292,2.3322,2.3355,2.3386,2.3412,2.3451,2.35,2.3512,2.356,2.3598,2.3658,2.3682,2.372,2.3715,2.3727,2.3731,2.3733,2.3735,2.3663,2.3728,2.3728,2.3728,2.3728,2.3728,0,2.323,2.3257,2.3297,2.3348,2.3382,2.3387,2.3427,2.3455,2.3498,2.3534,2.357,2.3623,2.3667,2.37,2.3744,2.3768,2.3772,2.3779,2.3777,2.3783,2.3736,2.3725,2.3775,2.3775,2.3775,2.3775,2.3775,2.3775,2.3261,2.3313,2.3331,2.3397,2.3424,2.3472,2.3495,2.3526,2.3555,2.3614,2.3651,2.3673,2.3707,2.3755,2.3795,2.3804,2.382,2.3827,2.3835,2.3791,2.3786,2.3781,2.377,2.383,2.383,2.3879,2.3879,2.388]}]]